ARABSAT-6A

Last updated on Aug. 15, 2020, 5:34 a.m. UTC

1 44186U 19021A   20227.49008535  .00000154  00000-0  00000-0 0  9993
2 44186   0.0567 327.3566 0004857 251.8565 311.0721  1.00271368  4817
UTC
Height (km)
Latitude
Longitude
Inclination
Orbital Period
UTC large
Height (km)
Speed (km/s)
/
Latitude / Longitude
Inclination (degrees)
Orbital Period (minutes)
Azimuth
Elevation
Range (km)
Doppler Factor
iOS Compass Heading
iOS Angle

Next 30 passes for location: Hong Kong

Rise time Rise Azimuth (degrees) Set time Set Azimuth (degrees) Duration Max altitude (degrees)

No matching passes for this satellites